Regional Weather Roundup
Issued by NWS

Home | Current Version | Previous Version | Graphics & Text | Print | Product List | Glossary On
Versions: 1 2 3 4 5 6 7 8 9 10 11 12 13 14 15 16 17 18 19 20 21 22 23 24 25 26 27 28 29 30 31 32 33 34 35 36 37 38 39 40 41 42 43 44 45 46 47 48 49 50
170
ASUS43 KFSD 242002
RWRSD

WEATHER ROUNDUP FOR SOUTH DAKOTA
NATIONAL WEATHER SERVICE SIOUX FALLS SD
300 PM CDT WED AUG 24 2016

NOTE: "FAIR" INDICATES FEW OR NO CLOUDS BELOW 12,000 FEET WITH NO
SIGNIFICANT WEATHER AND/OR OBSTRUCTIONS TO VISIBILITY.


SDZ001>005-009-010-012>017-242100-
NORTHWEST AND NORTH CENTRAL SOUTH DAKOTA

CITY           SKY/WX    TMP DP  RH WIND       PRES   REMARKS
BUFFALO          N/A     72  44  36 W33G40    30.08S
MOBRIDGE       MOSUNNY   79  47  32 W15G26    30.03F
$$

SDZ012>016-024>037-041>051-057-063-072>074-242100-
SOUTHWEST AND SOUTH CENTRAL SOUTH DAKOTA

CITY           SKY/WX    TMP DP  RH WIND       PRES   REMARKS
RAPID CTY ARPT SUNNY     74  44  34 VRB5      30.16F
PIERRE         PTSUNNY   75  47  36 W10       30.07F
CUSTER         SUNNY     67  33  28 SW8       30.24F
ELLSWORTH AFB  SUNNY     74  46  36 N9G17     30.16S
PHILIP         CLOUDY    76  48  37 W10       30.12F
PINE RIDGE     PTSUNNY   72  47  40 SE3       30.17F
WINNER         FAIR      74  51  44 NW15G21   30.10F
$$

SDZ004>011-016>023-039-040-242100-
NORTHEAST SOUTH DAKOTA

CITY           SKY/WX    TMP DP  RH WIND       PRES   REMARKS
ABERDEEN       CLOUDY    76  51  41 W14       30.02F
WATERTOWN      CLOUDY    73  51  46 W17       30.03F
BROOKINGS      CLOUDY    72  55  55 NW16      30.02F
$$

SDZ017-020-022-023-036>040-048>070-242100-
SOUTHEAST SOUTH DAKOTA

CITY           SKY/WX    TMP DP  RH WIND       PRES   REMARKS
SIOUX FALLS    PTSUNNY   75  58  55 NW9       30.05S
HURON          CLOUDY    79  51  37 NW15      30.04F
CHAMBERLAIN    CLOUDY    75  52  44 NW12      30.09S
MITCHELL       CLOUDY    73  56  54 NW12      30.06S
YANKTON        CLOUDY    73  54  49 NW9       30.05R
$$

ABBREVIATIONS USED IN REMARKS
   TC - TEMPERATURE IN CELSIUS
  WCI - WIND CHILL INDEX
   HX - HEAT INDEX
  VSB - VISIBILITY





USA.gov is the U.S. government's official web portal to all federal, state and local government web resources and services.